When you browse on this site, cookies collect data to enhance your experience and personalize the content and advertising you see.
Visit our Privacy Policy to learn more. By continuing to use the site, you agree to this use of cookies and data.
  • In United Kingdom
  • List of Countries
  • For 7 days
  • Water Temperature
  • Weather Map
  • Weather Widgets
  • user-avatar
    Login

    Hourly Weather La Massana

    Today, 5 June, Friday

    Time Temperature Precipitation Wind Pressure Humidity
    00:00 +3°C° 0 mm 2 mps 603 mmHg 94%
    01:00 +3°C° 0.1 mm 2 mps 603 mmHg 94%
    02:00 +2°C° 0.1 mm 2 mps 603 mmHg 94%
    03:00 +2°C° 0.1 mm 2 mps 603 mmHg 94%
    04:00 +2°C° 0 mm 2 mps 603 mmHg 92%
    05:00 +3°C° 0 mm 2 mps 603 mmHg 89%
    06:00 +3°C° 0 mm 2 mps 604 mmHg 87%
    07:00 +5°C° 0 mm 2 mps 605 mmHg 78%
    08:00 +7°C° 0 mm 2 mps 606 mmHg 70%
    09:00 +9°C° 0 mm 2 mps 607 mmHg 61%
    10:00 +10°C° 0 mm 2 mps 608 mmHg 60%
    11:00 +12°C° 0 mm 2 mps 608 mmHg 59%
    12:00 +13°C° 0 mm 2 mps 609 mmHg 57%
    13:00 +13°C° 0 mm 2 mps 609 mmHg 58%
    14:00 +13°C° 0 mm 2 mps 609 mmHg 59%
    15:00 +14°C° 0 mm 2 mps 609 mmHg 59%
    16:00 +13°C° 0 mm 2 mps 608 mmHg 66%
    17:00 +12°C° 0 mm 1 mps 608 mmHg 74%
    18:00 +11°C° 0 mm 1 mps 608 mmHg 81%
    19:00 +10°C° 0 mm 1 mps 608 mmHg 85%
    20:00 +9°C° 0 mm 1 mps 608 mmHg 88%
    21:00 +7°C° 0 mm 0 mps 608 mmHg 92%
    22:00 +7°C° 0 mm 0 mps 607 mmHg 92%
    23:00 +6°C° 0 mm 0 mps 607 mmHg 93%

    Tomorrow, 6 June, Saturday

    Time Temperature Precipitation Wind Pressure Humidity
    00:00 +6°C° 0 mm 0 mps 607 mmHg 94%
    01:00 +6°C° 0 mm 0 mps 607 mmHg 94%
    02:00 +6°C° 0 mm 0 mps 607 mmHg 94%
    03:00 +6°C° 0 mm 0 mps 607 mmHg 95%
    04:00 +7°C° 0 mm 0 mps 607 mmHg 93%
    05:00 +7°C° 0 mm 0 mps 607 mmHg 91%
    06:00 +8°C° 0 mm 0 mps 608 mmHg 89%
    07:00 +11°C° 0 mm 1 mps 608 mmHg 82%
    08:00 +12°C° 0 mm 1 mps 609 mmHg 74%
    09:00 +14°C° 0 mm 2 mps 610 mmHg 67%
    10:00 +13°C° 0.3 mm 2 mps 609 mmHg 71%
    11:00 +13°C° 0.3 mm 2 mps 609 mmHg 75%
    12:00 +13°C° 0.3 mm 2 mps 609 mmHg 79%
    13:00 +13°C° 1 mm 2 mps 608 mmHg 81%
    14:00 +13°C° 1 mm 2 mps 608 mmHg 84%
    15:00 +12°C° 1 mm 2 mps 607 mmHg 87%
    16:00 +12°C° 1.4 mm 1 mps 607 mmHg 89%
    17:00 +11°C° 1.4 mm 1 mps 606 mmHg 92%
    18:00 +10°C° 1.4 mm 1 mps 606 mmHg 94%
    19:00 +10°C° 2.4 mm 1 mps 606 mmHg 95%
    20:00 +9°C° 2.4 mm 1 mps 606 mmHg 95%
    21:00 +8°C° 2.4 mm 0 mps 606 mmHg 96%
    22:00 +7°C° 1.1 mm 0 mps 606 mmHg 95%
    23:00 +7°C° 1.1 mm 0 mps 606 mmHg 95%

    Day after tomorrow, 7 June, Sunday

    Time Temperature Precipitation Wind Pressure Humidity
    00:00 +7°C° 1.1 mm 0 mps 605 mmHg 94%
    01:00 +7°C° 0.7 mm 0 mps 605 mmHg 95%
    02:00 +6°C° 0.7 mm 0 mps 605 mmHg 95%
    03:00 +6°C° 0.7 mm 0 mps 605 mmHg 95%
    04:00 +7°C° 1.4 mm 1 mps 605 mmHg 95%
    05:00 +7°C° 1.4 mm 1 mps 605 mmHg 95%
    06:00 +7°C° 1.4 mm 1 mps 605 mmHg 95%
    07:00 +7°C° 0.9 mm 1 mps 606 mmHg 95%
    08:00 +7°C° 0.9 mm 1 mps 606 mmHg 94%
    09:00 +7°C° 0.9 mm 1 mps 606 mmHg 94%
    10:00 +7°C° 1.3 mm 1 mps 606 mmHg 94%
    11:00 +6°C° 1.3 mm 1 mps 606 mmHg 95%
    12:00 +6°C° 1.3 mm 1 mps 606 mmHg 95%
    13:00 +6°C° 0.8 mm 1 mps 606 mmHg 95%
    14:00 +5°C° 0.8 mm 2 mps 606 mmHg 94%
    15:00 +5°C° 0.8 mm 2 mps 606 mmHg 93%
    16:00 +5°C° 0.6 mm 2 mps 606 mmHg 93%
    17:00 +5°C° 0.6 mm 1 mps 605 mmHg 92%
    18:00 +5°C° 0.6 mm 1 mps 605 mmHg 92%
    19:00 +5°C° 0.5 mm 1 mps 606 mmHg 92%
    20:00 +4°C° 0.5 mm 1 mps 606 mmHg 92%
    21:00 +4°C° 0.5 mm 1 mps 606 mmHg 92%
    22:00 +3°C° 0.3 mm 1 mps 606 mmHg 92%
    23:00 +3°C° 0.3 mm 1 mps 606 mmHg 93%

    8 June, Monday

    Time Temperature Precipitation Wind Pressure Humidity
    00:00 +3°C° 0.3 mm 1 mps 606 mmHg 93%
    01:00 +3°C° 0 mm 1 mps 606 mmHg 94%
    02:00 +3°C° 0 mm 1 mps 606 mmHg 94%
    03:00 +3°C° 0 mm 1 mps 606 mmHg 95%
    04:00 +3°C° 0 mm 1 mps 606 mmHg 93%
    05:00 +3°C° 0 mm 1 mps 606 mmHg 91%
    06:00 +3°C° 0 mm 2 mps 606 mmHg 89%
    07:00 +4°C° 0 mm 2 mps 607 mmHg 77%
    08:00 +6°C° 0 mm 2 mps 608 mmHg 64%
    09:00 +8°C° 0 mm 2 mps 609 mmHg 52%
    10:00 +9°C° 0.1 mm 2 mps 609 mmHg 53%
    11:00 +10°C° 0.1 mm 2 mps 609 mmHg 54%
    12:00 +10°C° 0.1 mm 2 mps 610 mmHg 54%
    13:00 +10°C° 0.3 mm 2 mps 609 mmHg 60%
    14:00 +9°C° 0.3 mm 2 mps 609 mmHg 66%
    15:00 +9°C° 0.3 mm 2 mps 609 mmHg 72%
    16:00 +8°C° 0.5 mm 2 mps 608 mmHg 78%
    17:00 +7°C° 0.5 mm 2 mps 608 mmHg 84%
    18:00 +7°C° 0.5 mm 1 mps 608 mmHg 90%
    19:00 +6°C° 0.3 mm 1 mps 608 mmHg 91%
    20:00 +6°C° 0.3 mm 1 mps 608 mmHg 93%
    21:00 +5°C° 0.3 mm 1 mps 608 mmHg 94%
    22:00 +5°C° 0.2 mm 1 mps 608 mmHg 95%
    23:00 +4°C° 0.2 mm 1 mps 608 mmHg 95%

    9 June, Tuesday

    Time Temperature Precipitation Wind Pressure Humidity
    00:00 +4°C° 0.2 mm 1 mps 608 mmHg 95%
    01:00 +4°C° 0 mm 1 mps 607 mmHg 95%
    02:00 +4°C° 0 mm 1 mps 607 mmHg 95%
    03:00 +3°C° 0 mm 1 mps 607 mmHg 95%
    04:00 +4°C° 0 mm 1 mps 607 mmHg 93%
    05:00 +4°C° 0 mm 1 mps 608 mmHg 92%
    06:00 +5°C° 0 mm 1 mps 608 mmHg 91%
    07:00 +6°C° 0 mm 1 mps 609 mmHg 79%
    08:00 +7°C° 0 mm 2 mps 610 mmHg 68%
    09:00 +9°C° 0 mm 2 mps 610 mmHg 56%
    10:00 +9°C° 0.2 mm 2 mps 611 mmHg 56%
    11:00 +10°C° 0.2 mm 2 mps 611 mmHg 55%
    12:00 +12°C° 0.2 mm 2 mps 611 mmHg 55%
    13:00 +10°C° 0.4 mm 2 mps 611 mmHg 60%
    14:00 +10°C° 0.4 mm 2 mps 610 mmHg 66%
    15:00 +9°C° 0.4 mm 2 mps 610 mmHg 71%
    16:00 +8°C° 0.3 mm 2 mps 610 mmHg 76%
    17:00 +7°C° 0.3 mm 2 mps 609 mmHg 81%
    18:00 +6°C° 0.3 mm 2 mps 609 mmHg 85%
    19:00 +6°C° 0.1 mm 2 mps 609 mmHg 88%
    20:00 +5°C° 0.1 mm 2 mps 609 mmHg 90%
    21:00 +4°C° 0.1 mm 2 mps 610 mmHg 93%
    22:00 +5°C° 0 mm 1 mps 609 mmHg 92%
    23:00 +4°C° 0 mm 1 mps 609 mmHg 92%

    10 June, Wednesday

    Time Temperature Precipitation Wind Pressure Humidity
    00:00 +4°C° 0 mm 1 mps 609 mmHg 91%
    01:00 +4°C° 0 mm 1 mps 609 mmHg 90%
    02:00 +3°C° 0 mm 1 mps 608 mmHg 90%
    03:00 +3°C° 0 mm 1 mps 608 mmHg 89%
    04:00 +4°C° 0 mm 1 mps 609 mmHg 88%
    05:00 +5°C° 0 mm 1 mps 609 mmHg 86%
    06:00 +5°C° 0 mm 1 mps 609 mmHg 85%
    07:00 +6°C° 0.1 mm 1 mps 610 mmHg 82%
    08:00 +7°C° 0.1 mm 1 mps 610 mmHg 79%
    09:00 +8°C° 0.1 mm 1 mps 611 mmHg 76%
    10:00 +9°C° 0.5 mm 1 mps 611 mmHg 76%
    11:00 +9°C° 0.5 mm 1 mps 611 mmHg 76%
    12:00 +10°C° 0.5 mm 1 mps 611 mmHg 76%
    13:00 +10°C° 1 mm 1 mps 610 mmHg 79%
    14:00 +9°C° 1 mm 1 mps 610 mmHg 82%
    15:00 +9°C° 1 mm 1 mps 609 mmHg 85%
    16:00 +9°C° 0.7 mm 1 mps 609 mmHg 87%
    17:00 +8°C° 0.7 mm 1 mps 609 mmHg 88%
    18:00 +8°C° 0.7 mm 1 mps 609 mmHg 90%
    19:00 +7°C° 0.2 mm 1 mps 609 mmHg 91%
    20:00 +5°C° 0.2 mm 0 mps 609 mmHg 93%
    21:00 +4°C° 0.2 mm 0 mps 608 mmHg 94%
    22:00 +4°C° 0 mm 0 mps 608 mmHg 94%
    23:00 +5°C° 0 mm 1 mps 608 mmHg 93%
    Show more